Weather History for Hurlburt Field, FL

Change the Weather History Date:

Saturday, January 5, 2013

  Actual Average Record
Temperature  
Mean Temperature 46 °F -  
Max Temperature 53 °F 59 °F 77 °F (2004)
Min Temperature 40 °F 41 °F 19 °F (1999)
Degree Days  
Heating Degree Days 18    
Moisture  
Dew Point 38 °F    
Average Humidity 64    
Maximum Humidity 84    
Minimum Humidity 48    
Precipitation  
Precipitation 0.00 in - - ()
Sea Level Pressure  
Sea Level Pressure 30.30 in    
Wind  
Wind Speed 7 mph (NE)    
Max Wind Speed 13 mph    
Max Gust Speed 16 mph    
Visibility 10 miles    
Events Rain    
Averages and records for this station are not official NWS values.
T = Trace of Precipitation, MM = Missing Value Source: NWS Daily Summary

Daily Weather History Graph

Daily Weather History Graph

Search for Another Location

Airport:

Trip Planner

Search our weather history database for the weather conditions in past years. The results will help you decide how hot, cold, wet, or windy it might be!

Date:

Astronomy

Jan. 05, 2013 Rise Set
Actual Time 6:44 AM CST 5:00 PM CST
Civil Twilight 6:18 AM CST 5:26 PM CST
Nautical Twilight 5:48 AM CST 5:56 PM CST
Astronomical Twilight 5:19 AM CST 6:25 PM CST
Moon 12:04 AM CST (1/5) 11:37 AM CST (1/5)
Length of Visible Light 11h 08m
Length of Day
10h 16m
Last Quarter, 44% of the Moon is Illuminated
Jan 5
Last Quarter
Jan 11
New
Jan 18
First Quarter
Jan 26
Full
Feb 3
Last Quarter

Hourly Weather History & Observations

Time (CST) Temp. Windchill Dew Point Humidity Pressure Visibility Wind Dir Wind Speed Gust Speed Precip Events Conditions
12:55 AM 41.9 °F 37.5 °F 36.0 °F 79% 30.34 in 10.0 mi North 6.9 mph - N/A   Clear
1:55 AM 40.6 °F 35.4 °F 36.1 °F 84% 30.33 in 10.0 mi NNE 8.1 mph - N/A   Clear
2:55 AM 43.7 °F 38.6 °F 32.7 °F 65% 30.33 in 10.0 mi NNE 9.2 mph - N/A   Clear
3:55 AM 43.5 °F 39.4 °F 31.6 °F 63% 30.33 in 10.0 mi NE 6.9 mph - N/A   Partly Cloudy
4:55 AM 43.3 °F 38.1 °F 30.9 °F 62% 30.33 in 10.0 mi ENE 9.2 mph - N/A   Clear
5:55 AM 42.4 °F 36.5 °F 31.5 °F 65% 30.33 in 10.0 mi ENE 10.4 mph - N/A   Clear
6:55 AM 42.4 °F 37.5 °F 31.5 °F 65% 30.35 in 10.0 mi NE 8.1 mph - N/A   Clear
7:55 AM 43.7 °F 39.1 °F 32.0 °F 63% 30.36 in 10.0 mi ENE 8.1 mph - N/A   Clear
8:55 AM 47.7 °F - 32.0 °F 55% 30.36 in 10.0 mi ENE 11.5 mph - N/A   Clear
9:55 AM 52.2 °F - 33.1 °F 48% 30.36 in 10.0 mi ENE 9.2 mph 16.1 mph N/A   Scattered Clouds
10:55 AM 53.2 °F - 33.8 °F 48% 30.35 in 10.0 mi ENE 9.2 mph - N/A   Overcast
11:55 AM 53.8 °F - 35.6 °F 50% 30.31 in 10.0 mi NE 6.9 mph - N/A   Scattered Clouds
12:41 PM 53.6 °F - 37.4 °F 54% 30.29 in 10.0 mi NE 5.8 mph - N/A Rain Light Rain
12:55 PM 52.9 °F - 36.7 °F 54% 30.30 in 10.0 mi ENE 4.6 mph - 0.00 in Rain Light Rain
1:20 PM 53.6 °F - 37.4 °F 54% 30.28 in 10.0 mi East 6.9 mph - N/A   Scattered Clouds
1:34 PM 53.6 °F - 37.4 °F 54% 30.27 in 10.0 mi East 5.8 mph - N/A Rain Light Rain
1:43 PM 53.6 °F - 37.4 °F 54% 30.26 in 10.0 mi East 6.9 mph - N/A   Mostly Cloudy
1:55 PM 52.7 °F - 38.1 °F 58% 30.26 in 10.0 mi East 6.9 mph - 0.00 in   Light Drizzle
2:11 PM 53.6 °F - 39.2 °F 58% 30.27 in 10.0 mi East 5.8 mph - N/A   Scattered Clouds
2:55 PM 53.4 °F - 39.2 °F 59% 30.30 in 10.0 mi Calm Calm - 0.00 in   Mostly Cloudy
3:37 PM 51.8 °F - 41.0 °F 67% 30.30 in 10.0 mi Calm Calm - N/A Rain Light Rain
3:55 PM 52.2 °F - 41.9 °F 68% 30.31 in 10.0 mi NNE 3.5 mph - 0.00 in   Light Drizzle
3:57 PM 51.8 °F - 41.0 °F 67% 30.31 in 10.0 mi Calm Calm - N/A   Partly Cloudy
4:55 PM 51.3 °F - 43.3 °F 74% 30.31 in 10.0 mi Calm Calm - 0.00 in   Partly Cloudy
5:55 PM 51.1 °F - 42.4 °F 72% 30.30 in 10.0 mi NE 5.8 mph - N/A   Partly Cloudy
6:19 PM 50.0 °F - 42.8 °F 76% 30.32 in 10.0 mi North 9.2 mph - N/A   Light Drizzle
6:42 PM 50.0 °F - 42.8 °F 76% 30.32 in 10.0 mi North 10.4 mph - N/A   Partly Cloudy
6:55 PM 49.8 °F - 42.4 °F 76% 30.31 in 10.0 mi NNE 11.5 mph - 0.00 in   Partly Cloudy
6:56 PM 50.0 °F - 42.8 °F 76% 30.31 in 10.0 mi NNE 11.5 mph - N/A   Light Drizzle
6:58 PM 50.0 °F - 42.8 °F 76% 30.31 in 10.0 mi NNE 11.5 mph - N/A   Partly Cloudy
7:23 PM 51.8 °F - 39.2 °F 62% 30.29 in 10.0 mi East 12.7 mph - N/A Rain Light Rain
7:35 PM 51.8 °F - 39.2 °F 62% 30.29 in 10.0 mi ENE 10.4 mph - N/A   Mostly Cloudy
7:55 PM 51.4 °F - 39.7 °F 64% 30.27 in 10.0 mi East 10.4 mph - 0.00 in   Mostly Cloudy
8:55 PM 50.4 °F - 39.2 °F 66% 30.27 in 10.0 mi NE 6.9 mph - N/A   Scattered Clouds
9:55 PM 49.6 °F - 39.6 °F 68% 30.26 in 10.0 mi NNE 6.9 mph - N/A   Partly Cloudy
10:55 PM 49.1 °F - 39.7 °F 70% 30.25 in 10.0 mi NNE 8.1 mph - N/A   Clear
11:55 PM 49.1 °F - 38.8 °F 68% 30.24 in 10.0 mi NNE 4.6 mph - N/A   Mostly Cloudy